Regional Weather Roundup
Issued by NWS

Home | Current Version | Previous Version | Text Only | Print | Product List | Glossary On
Versions: 1 2 3 4 5 6 7 8 9 10 11 12 13 14 15 16 17 18 19 20 21 22 23 24 25 26 27 28 29 30 31 32 33 34 35 36 37 38 39 40 41 42 43 44 45 46 47 48 49 50
150
ASUS45 KTFX 140010
RWRMT
MONTANA REGIONAL WEATHER ROUNDUP
NATIONAL WEATHER SERVICE GREAT FALLS MT
500 PM MST SAT FEB 13 2016

NOTE: "FAIR" INDICATES FEW OR NO CLOUDS BELOW 12000 FEET WITH NO
SIGNIFICANT WEATHER AND/OR OBSTRUCTIONS TO VISIBILITY.

MTZ001>007-043-140100-
WEST OF THE DIVIDE

CITY           SKY/WX    TMP DP  RH WIND       PRES   REMARKS
KALISPELL      CLOUDY    37  30  75 SW7       30.11R WCI  32
MISSOULA       CLOUDY    41  26  55 NW9       30.17S
BUTTE          CLOUDY    36  19  50 W9        30.11S WCI  29
MULLAN PASS    LGT SNOW  25  24  96 SW12G21   30.09S VSB 3/4 WCI  14
ANACONDA         N/A     39  18  41 SW10      30.12R
DEER LODGE       N/A     37  27  65 N7        30.12F
HAMILTON         N/A     43  21  42 S7        30.17F
$$

MTZ008-052>055-140100-
SOUTHWEST MONTANA

CITY           SKY/WX    TMP DP  RH WIND       PRES   REMARKS
BOZEMAN        CLEAR     39  23  52 CALM      30.09F
DILLON         CLOUDY    37  18  46 W21       30.12F WCI  26
ENNIS          CLEAR     39  14  35 SW5       30.17F
TWIN BRIDGES     N/A     40  19  43 SW15      30.10F
$$

MTZ009-010-012-014-046-048-049-054-140100-
EAST SLOPES AND CENTRAL MONTANA

CITY           SKY/WX    TMP DP  RH WIND       PRES   REMARKS
CUT BANK       CLEAR     39  24  55 W31G39    29.94S WCI  27
GREAT FALLS    CLEAR     44  19  36 W20       29.98R
MALMSTROM AFB  PTCLDY    46  18  32 W24       29.99R
HELENA         CLOUDY    44  22  41 W10       30.08R
CHOTEAU          N/A     43  16  33 VRB5      29.98F
CONRAD           N/A     43  25  49 W20       29.99R
$$

MTZ011-013-016-021-045-047-050-051-140100-
NORTH CENTRAL MONTANA

CITY           SKY/WX    TMP DP  RH WIND       PRES   REMARKS
HAVRE          PTCLDY    45  29  53 NW9       29.92S
LEWISTOWN      CLOUDY    41  27  57 NW20G28   29.96F
N BAR RANCH      N/A     36  28  75 W22G32    29.95F WCI  24
CHINOOK          N/A     45  28  53 W10       29.92R
$$

MTZ017>020-022>027-061-062-140100-
NORTHEAST MONTANA

CITY           SKY/WX    TMP DP  RH WIND       PRES   REMARKS
GLASGOW        CLOUDY    39  32  76 NW20G31   29.81R WCI  29
JORDAN           N/A     42  32  67 NW28G38   29.86R
SIDNEY         CLOUDY    34  30  86 SW9       29.79S WCI  26
WOLF POINT     CLOUDY    33  29  85 VRB6      29.80R WCI  28
MALTA            N/A    N/A N/A N/A MISG      29.84
PLENTYWOOD       N/A     25  21  86 SE6       29.76F WCI  18
POPLAR           N/A     30  28  93 W7        29.80R WCI  23
$$

MTZ028>42-056>058-140100-
SOUTHCENTRAL AND SOUTHEAST MONTANA

CITY           SKY/WX    TMP DP  RH WIND       PRES   REMARKS
BAKER          CLOUDY    36  33  89 W10       29.82R WCI  28
BILLINGS       PTCLDY    47  17  30 W29G39    29.98R
LIVINGSTON     CLEAR     41  21  44 W20G29    30.05F
MILES CITY     CLOUDY    43  41  93 W15       29.86R
FORSYTH          N/A     46  32  57 W20G29    29.89R
LAUREL           N/A     46  20  36 W18       29.98R
ROUNDUP          N/A     43  27  53 W22       29.89R
$$

REGIONAL REPORTS...DAKOTAS

CITY           SKY/WX    TMP DP  RH WIND       PRES   REMARKS
WILLISTON      CLOUDY    22  18  85 S6        29.79S WCI  14
MINOT          LGT SNOW  18  10  71 SE12      29.89S VSB 3/4 WCI   5
DICKINSON      LGT SNOW  21  18  88 S12       29.79F FOG     WCI   9
BEACH          MOCLDY    34  34 100 W10       29.81F WCI  26
CROSBY         LGT SNOW  18  18 100 S12       29.82S VSB 3/4 WCI   5
TIOGA          HVY SNOW  14  14 100 SE10      29.84F VSB<1/4 WCI   1
WATFORD CITY   MOCLDY    25  23  93 S5        29.79F
BISMARCK       LGT SNOW  18  12  77 SE16      29.94S VSB 1   WCI   3
GRAND FORKS    CLOUDY    12   0  58 SE20      30.20F WCI  -6
FARGO          CLOUDY    14   1  56 SE20G28   30.20F WCI  -3
BUFFALO SD       N/A     35  32  88 NW13      29.76F WCI  26
RAPID CITY     RAIN      39  35  86 NW40G52   29.80R WCI  26
$$

REGIONAL REPORTS...WYOMING/IDAHO/WASHINGTON

CITY           SKY/WX    TMP DP  RH WIND       PRES   REMARKS
GILLETTE       CLOUDY    33  31  92 W9        29.93R WCI  25
SHERIDAN       CLEAR     38  32  79 NW8       29.94S
BUFFALO WY     CLOUDY    39  21  48 NW25G38   29.92R WCI  28
CODY           CLEAR     43  10  26 W15G32    30.00R
YELLOWSTONE LA   N/A     28  10  46 W9G22     30.12R WCI  19
IDAHO FALLS    CLOUDY    35  30  82 SW10      30.24S WCI  27
SALMON         CLOUDY    39  21  48 E5        30.18R
BOISE          PTSUNNY   49  26  41 N10       30.27S
SPOKANE        CLOUDY    43  33  68 SW16      30.16S
$$

REGIONAL REPORTS...ALBERTA

CITY           SKY/WX    TMP DP  RH WIND       PRES   REMARKS
EDMONTON       CLEAR     39  25  56 W5        29.75F
CALGARY        PTCLDY    43  18  36 W7        29.81F
LETHBRIDGE     MOCLDY    45  21  39 W24G32    29.89R
MEDICINE HAT   PTCLDY    43  32  65 SW8       29.89R
CARDSTON         N/A     41  19  42 W16G23      N/A
$$

REGIONAL REPORTS...SASKATCHEWAN

CITY           SKY/WX    TMP DP  RH WIND       PRES   REMARKS
SWIFT CURRENT  CLOUDY    25  25 100 W18G24    29.78R WCI  11
REGINA         CLOUDY    21  16  79 SE13      29.75F WCI   9
SASKATOON      CLOUDY    19  18  93 NW7       29.81R WCI  10
CYPRESS HILLS    N/A     32  30  93 NW10G18     N/A  WCI  24
VAL MARIE        N/A     36  32  87 NW20G28     N/A  WCI  25
ROCKGLEN         N/A     27  25  93 NW18G25     N/A  WCI  13
ASSINIBOIA       N/A     36  27  69 W5          N/A
$$




USA.gov is the U.S. government's official web portal to all federal, state and local government web resources and services.